Location: Unspecified
(50.7693°N, 0.0000°E)
Time: 07:39:28
(UTC+00:00)

Transit 2A - Pass Details

Date: 23 August 2020
Orbit: 591 x 967 km, 66.7° (Epoch: 20 September)

Event Time Altitude Azimuth Distance (km) Brightness Sun altitude
Rises 00:20:15 0° 321° (NW) 3,667 10.2 -27.8°
Reaches altitude 10° 00:22:59 10° 327° (NNW) 2,714 9.4 -27.7°
Maximum altitude 00:29:08 47° 41° (NE) 1,240 7.3 -27.6°
Enters shadow 00:33:22 19° 107° (ESE) 2,053 8.1 -27.5°
